| time (UTC) | temp C | wind direction | speed KPH | gust KPH | rain 1hr cm | rain 24hr cm | rain mn cm | humidity % | barometer mb |
| 20260506101717 | 21 | 127 | 19.3 | 0.0 | 0.00 | 2.82 | 0.00 | 34 | 903.8 |
| 20260506094717 | 19 | 134 | 27.4 | 0.0 | 0.00 | 2.82 | 0.00 | 37 | 904.2 |
| 20260506091717 | 19 | 142 | 22.5 | 0.0 | 0.00 | 2.82 | 0.00 | 37 | 904.0 |
| 20260506084717 | 17 | 132 | 30.6 | 0.0 | 0.00 | 2.82 | 0.00 | 41 | 904.2 |
| 20260506081717 | 16 | 121 | 17.7 | 0.0 | 0.00 | 2.82 | 0.00 | 49 | 904.4 |
| 20260506071717 | 13 | 141 | 16.1 | 0.0 | 0.00 | 2.82 | 0.00 | 57 | 904.8 |
| 20260506061717 | 10 | 129 | 17.7 | 0.0 | 0.00 | 2.82 | 0.00 | 71 | 905.6 |
| 20260506044717 | 8 | 121 | 8.0 | 0.0 | 0.00 | 2.82 | 0.00 | 76 | 906.3 |
| 20260506041717 | 7 | 125 | 6.4 | 0.0 | 0.00 | 2.82 | 0.00 | 76 | 906.2 |
| 20260506034717 | 7 | 0 | 0.0 | 0.0 | 0.00 | 2.82 | 0.00 | 76 | 906.1 |
| 20260506031717 | 8 | 83 | 3.2 | 0.0 | 0.00 | 2.82 | 0.00 | 75 | 906.9 |
| 20260506024717 | 8 | 114 | 4.8 | 0.0 | 0.00 | 2.82 | 0.00 | 74 | 907.0 |
| 20260506021717 | 7 | 0 | 0.0 | 0.0 | 0.00 | 2.82 | 0.00 | 74 | 907.4 |
| 20260506014717 | 8 | 124 | 3.2 | 0.0 | 0.00 | 2.82 | 0.00 | 72 | 907.1 |
| 20260506011717 | 8 | 0 | 0.0 | 0.0 | 0.00 | 2.82 | 0.00 | 70 | 907.2 |
| 20260506004717 | 8 | 0 | 0.0 | 0.0 | 0.00 | 2.82 | 0.00 | 68 | 907.2 |
| 20260506001717 | 9 | 0 | 0.0 | 0.0 | 0.00 | 2.82 | 0.00 | 67 | 907.3 |
| 20260505234717 | 9 | 118 | 4.8 | 0.0 | 0.00 | 2.82 | 0.00 | 65 | 907.4 |
| 20260505231717 | 10 | 0 | 0.0 | 0.0 | 0.00 | 2.82 | 0.00 | 63 | 907.6 |
| 20260505224717 | 10 | 0 | 0.0 | 0.0 | 0.00 | 2.82 | 0.00 | 61 | 907.4 |
| 20260505221717 | 10 | 0 | 0.0 | 0.0 | 0.00 | 2.82 | 0.00 | 59 | 907.3 |
| 20260505214717 | 11 | 0 | 0.0 | 0.0 | 0.00 | 2.82 | 0.00 | 58 | 907.1 |
| 20260505211717 | 12 | 0 | 0.0 | 0.0 | 0.00 | 2.82 | 0.00 | 55 | 906.7 |
| 20260505204717 | 12 | 0 | 0.0 | 0.0 | 0.00 | 2.82 | 0.00 | 53 | 906.6 |
| 20260505201717 | 13 | 324 | 1.6 | 0.0 | 0.00 | 2.82 | 0.00 | 51 | 906.2 |
| 20260505194717 | 15 | 275 | 4.8 | 0.0 | 0.00 | 2.82 | 0.00 | 48 | 905.9 |
| 20260505191717 | 16 | 0 | 0.0 | 0.0 | 0.00 | 2.82 | 0.00 | 44 | 905.5 |
| 20260505184717 | 17 | 84 | 9.7 | 0.0 | 0.00 | 2.82 | 0.00 | 40 | 905.2 |
| 20260505181717 | 18 | 33 | 12.9 | 0.0 | 0.00 | 2.82 | 0.00 | 38 | 905.0 |
| 20260505174717 | 22 | 338 | 3.2 | 0.0 | 0.00 | 2.82 | 0.00 | 33 | 904.7 |
| 20260505171717 | 24 | 138 | 9.7 | 0.0 | 0.00 | 2.82 | 0.00 | 29 | 904.7 |
| 20260505164717 | 24 | 145 | 16.1 | 0.0 | 0.00 | 2.82 | 0.00 | 30 | 904.6 |
| 20260505161717 | 21 | 237 | 4.8 | 0.0 | 0.00 | 2.82 | 0.00 | 39 | 904.9 |
| 20260505151717 | 19 | 286 | 6.4 | 0.0 | 0.00 | 2.82 | 0.00 | 40 | 905.4 |
| 20260505124717 | 22 | 184 | 9.7 | 0.0 | 0.00 | 2.82 | 0.00 | 31 | 905.1 |
| 20260505121717 | 24 | 131 | 17.7 | 0.0 | 0.00 | 2.82 | 0.00 | 27 | 905.1 |
| 20260505114717 | 25 | 111 | 20.9 | 0.0 | 0.00 | 2.82 | 0.00 | 24 | 904.8 |
| 20260505111717 | 25 | 128 | 24.1 | 0.0 | 0.00 | 2.82 | 0.00 | 23 | 904.8 |